Regional Weather Roundup
Issued by NWS

Home | Current Version | Previous Version | Text Only | Print | Product List | Glossary On
Versions: 1 2 3 4 5 6 7 8 9 10 11 12 13 14 15 16 17 18 19 20 21 22 23 24 25 26 27 28 29 30 31 32 33 34 35 36 37 38 39 40 41 42 43 44 45 46 47 48 49 50
000
ASUS43 KLSX 291007
RWRMO

WEATHER SUMMARY FOR MISSOURI
NATIONAL WEATHER SERVICE SPRINGFIELD MO
500 AM CDT MON AUG 29 2016

NOTE: "FAIR" INDICATES FEW OR NO CLOUDS BELOW 12,000 FEET WITH NO
       SIGNIFICANT WEATHER AND/OR OBSTRUCTIONS TO VISIBILITY.
       CURRENT SKY AND/OR WEATHER CONDITIONS ARE NOT AVAILABLE FOR
       CHILLICOTHE AND FARMINGTON.

MOZ001>031-035>038-043-044-053-054-291100-
...NORTHERN AND WESTERN MISSOURI...

CITY           SKY/WX    TMP DP  RH WIND       PRES   REMARKS
KANSAS CTY INT MOCLDY    71  67  87 E6        30.14R
KANSAS C DTWN  CLEAR     72  70  93 NE3       30.13R
LEE`S SUMMIT   CLEAR     71  69  93 N3        30.14R
ST JOSEPH      CLEAR     68  66  93 CALM      30.13F
KIRKSVILLE     FOG       68  67  96 CALM      30.16S VSB 1/4

$$
MOZ066>068-077>081-088>096-101>105-291100-
...SOUTHWEST MISSOURI...

CITY           SKY/WX    TMP DP  RH WIND       PRES   REMARKS
SPRINGFIELD    CLEAR     72  67  84 SE3       30.13S
JOPLIN         CLEAR     72  69  90 E6        30.12S

$$
MOZ032>034-039>042-045>050-055>058-069>072-291100-
...CENTRAL MISSOURI...

CITY           SKY/WX    TMP DP  RH WIND       PRES   REMARKS
COLUMBIA       CLEAR     73  71  93 E6        30.14R
JEFFERSON CITY CLEAR     73  71  93 CALM      30.12S
ROLLA          CLEAR     74  70  87 SE7       30.14S
SEDALIA        CLEAR     72  70  93 CALM      30.14S
WHITEMAN AFB   CLEAR     71  71 100 S1        30.12S
OSAGE BEACH    CLEAR     71  70  96 CALM      30.14S

$$
MOZ051-052-059>065-291100-
...EAST CENTRAL MISSOURI...

CITY           SKY/WX    TMP DP  RH WIND       PRES   REMARKS
ST LOUIS INTL  CLEAR     78  72  81 SE3       30.13F
SPIRIT OF STL  CLEAR     73  72  96 CALM      30.12S FOG
ST CHARLES     CLEAR     74  74 100 CALM      30.12S

$$
MOZ072>076-082>087-097>100-106>115-291100-
...SOUTH CENTRAL AND SOUTHEAST MISSOURI...

CITY           SKY/WX    TMP DP  RH WIND       PRES   REMARKS
CAPE GIRARDEAU CLEAR     73  71  93 NE5       30.09S
FARMINGTON     CLEAR     70  70 100 CALM      30.15S FOG
POPLAR BLUFF   CLEAR     75  73  93 CALM      30.09S
WEST PLAINS    CLEAR     70  68  93 NE3       30.15S FOG

$$



USA.gov is the U.S. government's official web portal to all federal, state and local government web resources and services.